+ View the NASA Portal
+ Center for Near-Earth Object Studies
IMPORTANT:
The SSD Announcement email list is now available. Major changes are coming in the near future, including possible hostname and/or URL changes. To be notified of such changes, subscribe to this email list.
Please visit
this page
for more details.
Don't show this message again
JPL Small-Body Database Browser
Search:
[
help
]
266361 (2007 EE42)
Classification:
Main-belt Asteroid
SPK-ID:
2266361
[
Ephemeris
|
Orbit Diagram
|
Orbital Elements
|
Mission Design
|
Physical Parameters
|
Discovery Circumstances
|
Close-Approach Data
]
[ show orbit diagram ]
Orbital Elements at Epoch 2458600.5 (2019-Apr-27.0) TDB
Reference:
JPL 10
(heliocentric ecliptic J2000)
Element
Value
Uncertainty (1-sigma)
Units
e
.03710382917063168
7.2512e-08
a
2.759404081370294
3.0649e-08
au
q
2.657019623722387
2.0759e-07
au
i
6.057172910204992
9.0593e-06
deg
node
1.794069758610211
5.9346e-05
deg
peri
45.96175381870057
0.00013374
deg
M
3.978785578985877
0.0001159
deg
t
p
2458581.995838305937
(2019-Apr-08.49583831)
0.00053906
TDB
period
1674.254135494455
4.58
2.7894e-05
7.637e-08
d
yr
n
.2150211203711208
3.5823e-09
deg/d
Q
2.861788539018201
3.1786e-08
au
Orbit Determination Parameters
# obs. used (total)
162
data-arc span
8777 days (24.03 yr)
first obs. used
1995-09-17
last obs. used
2019-09-28
planetary ephem.
DE431
SB-pert. ephem.
SB431-N16
condition code
0
norm. resid. RMS
.51974
source
ORB
producer
Otto Matic
solution date
2019-Nov-08 04:04:00
Additional Information
Earth MOID
= 1.66836 au
Jupiter MOID
= 2.2714 au
T_jup
= 3.333
[ show covariance matrix ]
[
Ephemeris
|
Orbit Diagram
|
Orbital Elements
|
Mission Design
|
Physical Parameters
|
Discovery Circumstances
|
Close-Approach Data
]
Physical Parameter Table
Parameter
Symbol
Value
Units
Sigma
Reference
Notes
absolute magnitude
H
16.3
n/a
MPO454980
266361 (2007 EE42)
Discovered 2007-Mar-09 by Spacewatch at Kitt Peak
Reference:
20110218/Numbers.arc
Last Updated:
2011-02-22
[ show close-approach data ]
Alternate Designations
2007 EE42
= 1995 SL10
[
Ephemeris
|
Orbit Diagram
|
Orbital Elements
|
Mission Design
|
Physical Parameters
|
Discovery Circumstances
|
Close-Approach Data
]
2019-Dec-11 22:37 UT
(server date/time)
Site Manager:
Ryan S. Park
Webmaster
:
Alan B. Chamberlin